Weather History for McCall, ID

Change the Weather History Date:

Friday, October 26, 2012

  Actual Average Record
Temperature  
Mean Temperature 25 °F 37 °F  
Max Temperature 30 °F 50 °F 71 °F (1944)
Min Temperature 19 °F 24 °F 11 °F (2002)
Degree Days  
Heating Degree Days 40 28  
Month to date heating degree days 645 633  
Since 1 July heating degree days 969 1398  
Cooling Degree Days 0 0  
Month to date cooling degree days 0 0  
Year to date cooling degree days 172 25  
Moisture  
Dew Point 24 °F    
Average Humidity 87    
Maximum Humidity 100    
Minimum Humidity 74    
Precipitation  
Precipitation 0.11 in 0.05 in 0.78 in (1950)
Month to date precipitation 2.17 1.08  
Year to date precipitation 20.48 15.00  
Sea Level Pressure  
Sea Level Pressure 30.27 in    
Wind  
Wind Speed 2 mph (SE)    
Max Wind Speed 12 mph    
Max Gust Speed 15 mph    
Visibility 3 miles    
Events Fog , Snow    
T = Trace of Precipitation, MM = Missing Value Source: NWS Daily Summary

Daily Weather History Graph

Daily Weather History Graph

Search for Another Location

Airport:

Trip Planner

Search our weather history database for the weather conditions in past years. The results will help you decide how hot, cold, wet, or windy it might be!

Date:

Astronomy

Oct. 26, 2012 Rise Set
Actual Time 8:15 AM MDT 6:40 PM MDT
Civil Twilight 7:45 AM MDT 7:10 PM MDT
Nautical Twilight 7:10 AM MDT 7:45 PM MDT
Astronomical Twilight 6:36 AM MDT 8:19 PM MDT
Moon 5:03 PM MDT (10/26) 5:09 AM MDT (10/26)
Length of Visible Light 11h 25m
Length of Day
10h 25m
Waxing Gibbous, 91% of the Moon is Illuminated
Oct 26
Waxing Gibbous
Oct 29
Full
Nov 6
Last Quarter
Nov 13
New
Nov 20
First Quarter

Hourly Weather History & Observations

Time (MDT) Temp. Windchill Dew Point Humidity Pressure Visibility Wind Dir Wind Speed Gust Speed Precip Events Conditions
12:01 AM 21.2 °F 13.6 °F 19.4 °F 93% 30.36 in 4.0 mi ENE 5.8 mph - N/A   Mostly Cloudy
12:14 AM 21.2 °F 14.9 °F 19.4 °F 93% 30.36 in 10.0 mi ENE 4.6 mph - N/A   Scattered Clouds
12:36 AM 23.0 °F - 19.4 °F 86% 30.37 in 8.0 mi Calm Calm - N/A   Mostly Cloudy
12:42 AM 21.2 °F - 19.4 °F 93% 30.37 in 10.0 mi Calm Calm - N/A   Mostly Cloudy
12:51 AM 21.0 °F - 19.0 °F 92% 30.49 in 8.0 mi Calm Calm - N/A   Overcast
1:05 AM 21.2 °F - 17.6 °F 86% 30.37 in 1.8 mi Calm Calm - N/A   Overcast
1:10 AM 21.2 °F - 17.6 °F 86% 30.37 in 0.8 mi Calm Calm - N/A   Overcast
1:23 AM 19.4 °F - 15.8 °F 86% 30.37 in 0.2 mi Calm Calm - N/A Fog Light Freezing Fog
1:51 AM 19.9 °F - 16.0 °F 85% 30.48 in 0.2 mi Calm Calm - N/A Fog Light Freezing Fog
2:06 AM 19.4 °F - 15.8 °F 86% 30.37 in 0.2 mi Calm Calm - N/A Fog Light Freezing Fog
2:51 AM 21.9 °F - 19.0 °F 89% 30.46 in 0.2 mi Calm Calm - N/A Fog Light Freezing Fog
3:11 AM 23.0 °F 18.4 °F 17.6 °F 80% 30.37 in 1.5 mi ENE 3.5 mph - N/A   Haze
3:13 AM 23.0 °F 18.4 °F 17.6 °F 80% 30.37 in 4.0 mi ENE 3.5 mph - N/A   Haze
3:51 AM 24.1 °F 18.2 °F 19.9 °F 84% 30.48 in 8.0 mi NE 4.6 mph - N/A   Overcast
4:29 AM 26.6 °F - 23.0 °F 86% 30.35 in 2.0 mi Calm Calm - N/A   Overcast
4:41 AM 26.6 °F 22.6 °F 23.0 °F 86% 30.35 in 1.8 mi ENE 3.5 mph - N/A   Overcast
4:51 AM 27.0 °F - 23.0 °F 85% 30.45 in 1.8 mi Calm Calm - N/A   Overcast
5:05 AM 26.6 °F 22.6 °F 23.0 °F 86% 30.34 in 2.5 mi SSE 3.5 mph - N/A   Overcast
5:20 AM 26.6 °F 22.6 °F 23.0 °F 86% 30.34 in 1.5 mi South 3.5 mph - N/A   Overcast
5:42 AM 26.6 °F 21.2 °F 21.2 °F 80% 30.34 in 1.0 mi South 4.6 mph - N/A   Overcast
5:49 AM 26.6 °F 21.2 °F 21.2 °F 80% 30.34 in 0.8 mi South 4.6 mph - N/A   Overcast
5:51 AM 26.1 °F 20.5 °F 21.9 °F 84% 30.44 in 0.8 mi South 4.6 mph - N/A   Overcast
6:09 AM 26.6 °F 22.6 °F 21.2 °F 80% 30.34 in 1.2 mi SSW 3.5 mph - N/A   Overcast
6:28 AM 26.6 °F 22.6 °F 21.2 °F 80% 30.34 in 2.0 mi South 3.5 mph - N/A   Overcast
6:35 AM 26.6 °F - 21.2 °F 80% 30.34 in 1.2 mi Calm Calm - N/A   Overcast
6:41 AM 26.6 °F - 21.2 °F 80% 30.34 in 0.8 mi Calm Calm - N/A   Overcast
6:51 AM 26.1 °F 21.9 °F 21.0 °F 81% 30.45 in 1.2 mi SSE 3.5 mph - N/A   Haze
6:59 AM 26.6 °F 21.2 °F 21.2 °F 80% 30.34 in 3.0 mi SE 4.6 mph - N/A   Haze
7:51 AM 23.0 °F - 18.0 °F 81% 30.44 in 6.0 mi Calm Calm - N/A   Haze
8:51 AM 24.1 °F - 18.0 °F 77% 30.44 in 7.0 mi Calm Calm - N/A   Overcast
9:40 AM 26.6 °F - 21.2 °F 80% 30.31 in 1.8 mi Calm Calm - N/A   Haze
9:45 AM 26.6 °F - 21.2 °F 80% 30.31 in 0.8 mi Calm Calm - N/A   Haze
9:51 AM 27.0 °F - 21.9 °F 81% 30.43 in 0.5 mi Calm Calm - N/A   Haze
10:44 AM 28.4 °F - 24.8 °F 86% 30.30 in 1.2 mi Calm Calm - N/A   Haze
10:49 AM 30.2 °F - 24.8 °F 80% 30.30 in 3.0 mi Calm Calm - N/A   Haze
10:51 AM 30.0 °F - 25.0 °F 82% 30.41 in 4.0 mi Calm Calm - N/A   Haze
11:51 AM 27.0 °F - 23.0 °F 85% 30.39 in 5.0 mi Calm Calm - N/A   Overcast
12:51 PM 26.1 °F - 23.0 °F 88% 30.35 in 8.0 mi Calm Calm - N/A   Overcast
1:51 PM 27.0 °F 23.0 °F 24.1 °F 89% 30.32 in 4.0 mi South 3.5 mph - 0.00 in Snow Light Snow
1:59 PM 26.6 °F 19.1 °F 24.8 °F 93% 30.19 in 2.0 mi SSE 6.9 mph - 0.00 in Snow Light Snow
2:12 PM 28.4 °F 19.1 °F 24.8 °F 86% 30.18 in 4.0 mi SE 10.4 mph - 0.00 in Snow Light Snow
2:20 PM 28.4 °F 20.4 °F 26.6 °F 93% 30.17 in 2.5 mi SSE 8.1 mph - 0.00 in Snow Light Snow
2:27 PM 28.4 °F 19.7 °F 26.6 °F 93% 30.17 in 1.0 mi SSE 9.2 mph - 0.00 in Snow Light Snow
2:36 PM 28.4 °F 21.2 °F 26.6 °F 93% 30.17 in 2.0 mi SSE 6.9 mph - 0.00 in Snow Light Snow
2:40 PM 28.4 °F 21.2 °F 26.6 °F 93% 30.17 in 4.0 mi SSE 6.9 mph - 0.00 in Snow Light Snow
2:51 PM 30.0 °F 22.4 °F 26.1 °F 85% 30.28 in 2.5 mi SSE 8.1 mph - 0.00 in Snow Light Snow
2:54 PM 30.2 °F 23.4 °F 26.6 °F 86% 30.16 in 1.8 mi SSE 6.9 mph - 0.00 in Snow Light Snow
3:07 PM 28.4 °F 21.2 °F 24.8 °F 86% 30.16 in 0.8 mi SSE 6.9 mph - 0.01 in Snow Light Snow
3:26 PM 28.4 °F 22.2 °F 26.6 °F 93% 30.15 in 1.0 mi SSE 5.8 mph - N/A Snow Light Snow
3:51 PM 30.0 °F - 27.0 °F 88% 30.24 in 1.8 mi Calm Calm - 0.02 in Snow Light Snow
3:54 PM 30.2 °F 25.4 °F 26.6 °F 86% 30.13 in 3.0 mi East 4.6 mph - 0.00 in Snow Light Snow
4:05 PM 30.2 °F - 26.6 °F 86% 30.13 in 1.8 mi Calm Calm - 0.00 in Snow Light Snow
4:12 PM 30.2 °F - 26.6 °F 86% 30.13 in 2.0 mi Calm Calm - 0.01 in Snow Light Snow
4:20 PM 30.2 °F - 26.6 °F 86% 30.13 in 8.0 mi Calm Calm - 0.01 in   Overcast
4:32 PM 30.2 °F - 26.6 °F 86% 30.13 in 2.5 mi Calm Calm - 0.01 in Snow Light Snow
4:40 PM 30.2 °F - 26.6 °F 86% 30.13 in 1.5 mi Calm Calm - 0.01 in Snow Light Snow
4:51 PM 30.0 °F 26.5 °F 26.1 °F 85% 30.22 in 2.0 mi NNE 3.5 mph - 0.01 in Snow Light Snow
5:01 PM 30.2 °F 24.3 °F 26.6 °F 86% 30.14 in 1.8 mi NNE 5.8 mph - 0.00 in Snow Light Snow
5:09 PM 30.2 °F 25.4 °F 26.6 °F 86% 30.14 in 2.0 mi North 4.6 mph - 0.00 in Snow Light Snow
5:15 PM 30.2 °F 26.7 °F 26.6 °F 86% 30.14 in 3.0 mi North 3.5 mph - 0.00 in Snow Light Snow
5:21 PM 30.2 °F - 26.6 °F 86% 30.14 in 1.8 mi Calm Calm - 0.00 in Snow Light Snow
5:25 PM 30.2 °F - 26.6 °F 86% 30.14 in 0.8 mi Calm Calm - 0.00 in Snow Light Snow
5:38 PM 30.2 °F 26.7 °F 26.6 °F 86% 30.14 in 0.5 mi East 3.5 mph - 0.02 in Fog , Snow Snow
5:51 PM 30.0 °F 26.5 °F 27.0 °F 88% 30.22 in 1.5 mi East 3.5 mph - 0.02 in Snow Light Snow
6:08 PM 28.4 °F 24.6 °F 26.6 °F 93% 30.13 in 1.0 mi ESE 3.5 mph - 0.00 in Snow Light Snow
6:17 PM 28.4 °F 23.3 °F 26.6 °F 93% 30.13 in 1.2 mi ESE 4.6 mph - 0.01 in Snow Light Snow
6:23 PM 28.4 °F 24.6 °F 26.6 °F 93% 30.13 in 0.8 mi East 3.5 mph - 0.01 in Snow Light Snow
6:32 PM 28.4 °F 24.6 °F 26.6 °F 93% 30.13 in 0.5 mi East 3.5 mph - 0.02 in Fog , Snow Snow
6:42 PM 28.4 °F 23.3 °F 26.6 °F 93% 30.12 in 0.5 mi ESE 4.6 mph - 0.03 in Fog , Snow Snow
6:51 PM 28.9 °F 23.9 °F 27.0 °F 92% 30.22 in 0.8 mi SSE 4.6 mph - 0.04 in Snow Light Snow
6:55 PM 28.4 °F 23.3 °F 26.6 °F 93% 30.13 in 1.2 mi SSE 4.6 mph - N/A Snow Light Snow
7:00 PM 28.4 °F 22.2 °F 26.6 °F 93% 30.13 in 2.0 mi SSE 5.8 mph - 0.00 in Snow Light Snow
7:08 PM 28.4 °F 23.3 °F 26.6 °F 93% 30.13 in 3.0 mi South 4.6 mph - 0.00 in Snow Light Snow
7:51 PM 30.0 °F - 28.0 °F 92% 30.22 in 7.0 mi Calm Calm - 0.00 in Snow Light Snow
8:51 PM 28.9 °F - 28.0 °F 96% 30.23 in 7.0 mi Calm Calm - 0.01 in   Overcast
9:51 PM 28.9 °F - 28.0 °F 96% 30.22 in 3.0 mi Calm Calm - 0.00 in Snow Light Snow
10:24 PM 30.2 °F 25.4 °F 28.4 °F 93% 30.13 in 2.0 mi North 4.6 mph - 0.01 in Snow Light Snow
10:32 PM 30.2 °F 26.7 °F 28.4 °F 93% 30.13 in 5.0 mi North 3.5 mph - 0.01 in Snow Light Snow
10:51 PM 30.0 °F - 28.0 °F 92% 30.20 in 9.0 mi Calm Calm - 0.01 in   Overcast
11:51 PM 30.0 °F - 28.0 °F 92% 30.21 in 10.0 mi Calm Calm - 0.00 in   Overcast